Flag Weather past 2 weeks in Clarksville, Tennessee, U.S.A.

Now
23 °F

Ice fog.


Feels Like: 23 °F
Forecast: 26 / 48 °F
Wind: No wind

Location: Outlaw Field

Current Time: Nov 26, 2014 at 7:21:58 AM

Latest Report: Nov 26, 2014 at 6:52 AM


Visibility: 4 mi

Pressure: 30.16 "Hg

Humidity: 92%

Dew point: 21 °F

Location of ClarksvilleLocation

Historic Weather in Clarksville — Graph

°F

Clarksville temperature yesterday

Maximum temperature yesterday: 47 °F (at 1:52 PM)
Minimum temperature yesterday: 31 °F (at 10:52 PM)
Average temperature yesterday: 39 °F

Past Weeks' High & Low Weather Summary

 TemperatureHumidityPressure
High67 °F (Nov 22, 1:52 PM)97% (Nov 11, 6:52 PM)30.47 "Hg (Nov 11, 6:52 PM)
Low16 °F (Nov 18, 5:52 AM)30% (Nov 19, 2:52 PM)29.34 "Hg (Nov 23, 7:52 PM)
Average39 °F65%30.15 "Hg
* Reported Nov 11 5:52 AM — Nov 26 5:52 AM, Clarksville, Weather by CustomWeather, © 2014

Note: Actual official high and low records may vary slightly from our data, if they occured in-between our weather recording intervals... More about our weather records

Advertising

Clarksville weather history for previous 24 hours

 ConditionsComfort  
Time TempWeatherWind HumidityBarometerVisibility
5:52 AM
Nov 26
23 °FIce fog.No wind92%30.15 "Hg4 mi
4:52 AM25 °FClear.No wind92%30.15 "Hg8 mi
3:52 AM27 °FClear.5 mph92%30.15 "Hg9 mi
2:52 AM26 °FClear.No wind92%30.14 "Hg7 mi
1:52 AM29 °FClear.3 mph89%30.15 "Hg10 mi
12:52 AM29 °FClear.7 mph85%30.15 "Hg10 mi
11:52 PM
Nov 25
31 °FClear.3 mph85%30.17 "Hg10 mi
10:52 PM31 °FClear.3 mph82%30.18 "Hg10 mi
9:52 PM35 °FClear.3 mph75%30.19 "Hg10 mi
8:52 PM34 °FClear.6 mph79%30.19 "Hg10 mi
7:52 PM39 °FClear.5 mph62%30.18 "Hg10 mi
6:52 PM41 °FClear.No wind58%30.19 "Hg10 mi
5:52 PM39 °FClear.5 mph65%30.16 "Hg10 mi
4:52 PM41 °FClear.6 mph60%30.15 "Hg10 mi
3:52 PM44 °FClear.8 mph51%30.14 "Hg10 mi
2:52 PM46 °FSunny.6 mph46%30.14 "Hg10 mi
1:52 PM47 °FSunny.8 mph44%30.13 "Hg10 mi
12:52 PM46 °FSunny.8 mph48%30.15 "Hg10 mi
11:52 AM45 °FSunny.8 mph45%30.17 "Hg10 mi
10:52 AM44 °FSunny.9 mph49%30.20 "Hg10 mi
9:52 AM41 °FSunny.10 mph55%30.20 "Hg10 mi
8:52 AM40 °FSunny.8 mph63%30.19 "Hg10 mi
7:52 AM36 °FSunny.No wind79%30.16 "Hg10 mi
Weather by CustomWeather, © 2014

See weather overviewHow to use our weather pages